Find Thaicom 3

NORAD ID: 24768 Int'l Des: 1997-016 Owner: SHINW Country: T operational
HEOCIRCULAR

Live Position

Loading 3D Globe...

About Thaicom 3

Description loading...

Upcoming Passes

Passes for default location (London). Set your location on the main map for personalized predictions.

Altitude History

Loading altitude history...

Two-Line Element Set

1 24768U 97016A 26105.54827839 -.00000204 00000-0 00000-0 0 9997
2 24768 12.9329 25.6435 0090002 47.0038 143.6353 0.98755203105328
Epoch: Apr 15, 2026 • Age: 9 hours

Current Status

Altitude 36126.5 km
Velocity 3.07 km/s
Sub-Earth Point -6.42°S, 172.66°E
Launch Date Apr 16, 1997
Age 28.9 years
Type other

Technical Details

Classification Payload
Mass 2650.00 kg
Dry Mass 1179.00 kg
Total Mass 2650.00 kg
Length 7.30 m
Diameter 2.30 m
Span 26.30 m
Shape Box + 2 Pan
Manufacturer AESPC
Bus Type Spacebus 3000
Phase Status In Orbit
Owner/State SHINW/T

Most Searched